Clarksville, TX

5:29 PM CST on February 27, 2017 (GMT -0600)
Clarksville

Weather History for KLBR - November, 2012

Change the Weather History Date:

Saturday, November 17, 2012

  Actual Average (KPRX) Record (KPRX)
Temperature  
Mean Temperature 49 °F -  
Max Temperature 66 °F 62 °F 82 °F (2013)
Min Temperature 32 °F 43 °F 21 °F (2014)
Degree Days  
Heating Degree Days 16    
Moisture  
Dew Point 30 °F    
Average Humidity 53    
Maximum Humidity 87    
Minimum Humidity 21    
Precipitation  
Precipitation 0.00 in - - ()
Sea Level Pressure  
Sea Level Pressure 30.37 in    
Wind  
Wind Speed 2 mph (East)    
Max Wind Speed 7 mph    
Max Gust Speed -    
Visibility 9 miles    
Events      
Averages and records for this station are not official NWS values.
T = Trace of Precipitation, MM = Missing Value Source: NWS Daily Summary

Daily Weather History Graph

Daily Weather History Graph

Search for Another Location

Airport or City:

Trip Planner

Search our weather history database for the weather conditions in past years. The results will help you decide how hot, cold, wet, or windy it might be!

Date:

Astronomy

Nov. 17, 2012 Rise Set
Actual Time 6:54 AM CST 5:16 PM CST
Civil Twilight 6:27 AM CST 5:42 PM CST
Nautical Twilight 5:57 AM CST 6:12 PM CST
Astronomical Twilight 5:27 AM CST 6:42 PM CST
Moon 10:39 AM CST (11/17) 9:26 PM CST (11/17)
Length of Visible Light 11h 14m
Length of Day
10h 21m
Waxing Crescent, 20% of the Moon is Illuminated
Nov 17
Waxing Crescent
Nov 20
First Quarter
Nov 28
Full
Dec 6
Last Quarter
Dec 13
New

Hourly Weather History & Observations

Time (CST) Temp. Windchill Dew Point Humidity Pressure Visibility Wind Dir Wind Speed Gust Speed Precip Events Conditions
12:15 AM 35.6 °F - 30.2 °F 81% 30.39 in 10.0 mi Calm Calm - N/A   Clear
12:35 AM 35.6 °F - 30.2 °F 81% 30.39 in 10.0 mi Calm Calm - N/A   Clear
12:55 AM 33.8 °F 30.8 °F 30.2 °F 87% 30.39 in 10.0 mi NE 3.5 mph - N/A   Clear
1:15 AM 33.8 °F 30.8 °F 30.2 °F 87% 30.39 in 10.0 mi NE 3.5 mph - N/A   Clear
1:35 AM 42.8 °F 41.1 °F 30.2 °F 61% 30.38 in 4.0 mi ENE 3.5 mph - N/A   Clear
1:55 AM 42.8 °F - 30.2 °F 61% 30.38 in 7.0 mi Calm Calm - N/A   Clear
2:15 AM 42.8 °F - 30.2 °F 61% 30.38 in 7.0 mi Calm Calm - N/A   Clear
2:35 AM 42.8 °F - 30.2 °F 61% 30.39 in 5.0 mi Calm Calm - N/A   Clear
2:55 AM 41.0 °F - 30.2 °F 65% 30.38 in 5.0 mi Calm Calm - N/A   Clear
3:15 AM 41.0 °F 38.0 °F 30.2 °F 65% 30.38 in 5.0 mi NE 4.6 mph - N/A   Clear
3:35 AM 41.0 °F 39.0 °F 30.2 °F 65% 30.38 in 5.0 mi ENE 3.5 mph - N/A   Clear
3:55 AM 41.0 °F - 30.2 °F 65% 30.38 in 5.0 mi Calm Calm - N/A   Clear
4:15 AM 39.2 °F - 30.2 °F 70% 30.38 in 7.0 mi Calm Calm - N/A   Clear
4:35 AM 39.2 °F - 30.2 °F 70% 30.39 in 7.0 mi Calm Calm - N/A   Clear
4:55 AM 39.2 °F 37.0 °F 30.2 °F 70% 30.38 in 5.0 mi NE 3.5 mph - N/A   Clear
5:15 AM 39.2 °F - 30.2 °F 70% 30.39 in 5.0 mi Calm Calm - N/A   Clear
5:35 AM 35.6 °F - 28.4 °F 75% 30.39 in 7.0 mi Calm Calm - N/A   Clear
5:55 AM 32.0 °F - 28.4 °F 87% 30.40 in 10.0 mi Calm Calm - N/A   Clear
6:15 AM 32.0 °F - 28.4 °F 87% 30.40 in 10.0 mi Calm Calm - N/A   Clear
6:35 AM 32.0 °F 27.5 °F 28.4 °F 87% 30.41 in 10.0 mi NNW 4.6 mph - N/A   Clear
6:55 AM 32.0 °F - 28.4 °F 87% 30.41 in 10.0 mi Calm Calm - N/A   Clear
7:15 AM 32.0 °F - 28.4 °F 87% 30.42 in 10.0 mi Calm Calm - N/A   Clear
7:35 AM 32.0 °F - 28.4 °F 87% 30.43 in 10.0 mi Calm Calm - N/A   Clear
7:55 AM 37.4 °F - 30.2 °F 75% 30.43 in 7.0 mi Calm Calm - N/A   Clear
8:15 AM 42.8 °F 39.3 °F 32.0 °F 66% 30.43 in 5.0 mi NE 5.8 mph - N/A   Clear
8:35 AM 42.8 °F 40.1 °F 32.0 °F 66% 30.44 in 3.0 mi NE 4.6 mph - N/A   Clear
8:55 AM 46.4 °F 43.5 °F 32.0 °F 57% 30.44 in 10.0 mi ENE 5.8 mph - N/A   Clear
9:15 AM 46.4 °F 44.3 °F 32.0 °F 57% 30.44 in 10.0 mi ENE 4.6 mph - N/A   Clear
9:35 AM 50.0 °F - 32.0 °F 50% 30.45 in 10.0 mi East 4.6 mph - N/A   Clear
9:55 AM 51.8 °F - 32.0 °F 47% 30.45 in 10.0 mi East 4.6 mph - N/A   Clear
10:15 AM 51.8 °F - 32.0 °F 47% 30.45 in 10.0 mi Calm Calm - N/A   Clear
10:35 AM 53.6 °F - 32.0 °F 44% 30.44 in 10.0 mi East 3.5 mph - N/A   Clear
11:55 AM 60.8 °F - 32.0 °F 34% 30.41 in 10.0 mi ESE 5.8 mph - N/A   Clear
12:15 PM 60.8 °F - 30.2 °F 31% 30.40 in 10.0 mi SE 5.8 mph - N/A   Clear
12:35 PM 60.8 °F - 30.2 °F 31% 30.38 in 10.0 mi SE 5.8 mph - N/A   Clear
12:55 PM 62.6 °F - 30.2 °F 30% 30.38 in 10.0 mi ESE 6.9 mph - N/A   Clear
1:15 PM 64.4 °F - 28.4 °F 26% 30.37 in 10.0 mi East 4.6 mph - N/A   Clear
1:35 PM 64.4 °F - 28.4 °F 26% 30.36 in 10.0 mi ENE 6.9 mph - N/A   Clear
1:55 PM 64.4 °F - 28.4 °F 26% 30.35 in 10.0 mi SSE 4.6 mph - N/A   Clear
2:15 PM 64.4 °F - 26.6 °F 24% 30.34 in 10.0 mi East 5.8 mph - N/A   Clear
2:35 PM 64.4 °F - 24.8 °F 22% 30.34 in 10.0 mi SE 3.5 mph - N/A   Clear
2:55 PM 64.4 °F - 24.8 °F 22% 30.33 in 10.0 mi East 3.5 mph - N/A   Clear
3:15 PM 66.2 °F - 24.8 °F 21% 30.32 in 10.0 mi SE 4.6 mph - N/A   Clear
3:35 PM 64.4 °F - 26.6 °F 24% 30.32 in 10.0 mi East 4.6 mph - N/A   Clear
3:55 PM 64.4 °F - 26.6 °F 24% 30.32 in 10.0 mi ESE 4.6 mph - N/A   Clear
4:15 PM 64.4 °F - 26.6 °F 24% 30.33 in 10.0 mi SE 3.5 mph - N/A   Clear
4:35 PM 64.4 °F - 26.6 °F 24% 30.32 in 10.0 mi Calm Calm - N/A   Clear
4:55 PM 62.6 °F - 28.4 °F 27% 30.32 in 10.0 mi East 3.5 mph - N/A   Clear
5:15 PM 60.8 °F - 28.4 °F 29% 30.31 in 10.0 mi Calm Calm - N/A   Clear
5:35 PM 59.0 °F - 28.4 °F 31% 30.32 in 10.0 mi Calm Calm - N/A   Clear
5:55 PM 57.2 °F - 28.4 °F 33% 30.32 in 10.0 mi Calm Calm - N/A   Clear
6:15 PM 55.4 °F - 28.4 °F 36% 30.32 in 10.0 mi Calm Calm - N/A   Clear
6:35 PM 51.8 °F - 30.2 °F 44% 30.32 in 10.0 mi Calm Calm - N/A   Clear
6:55 PM 53.6 °F - 30.2 °F 41% 30.32 in 10.0 mi Calm Calm - N/A   Clear
7:15 PM 53.6 °F - 30.2 °F 41% 30.32 in 10.0 mi Calm Calm - N/A   Clear
7:35 PM 51.8 °F - 32.0 °F 47% 30.32 in 10.0 mi Calm Calm - N/A   Clear
7:55 PM 51.8 °F - 32.0 °F 47% 30.32 in 10.0 mi East 3.5 mph - N/A   Clear
8:15 PM 51.8 °F - 32.0 °F 47% 30.33 in 10.0 mi Calm Calm - N/A   Clear
8:35 PM 46.4 °F - 32.0 °F 57% 30.33 in 10.0 mi Calm Calm - N/A   Clear
8:55 PM 46.4 °F - 32.0 °F 57% 30.33 in 10.0 mi Calm Calm - N/A   Clear
9:15 PM 50.0 °F - 32.0 °F 50% 30.32 in 10.0 mi East 4.6 mph - N/A   Clear
9:35 PM 50.0 °F - 32.0 °F 50% 30.33 in 10.0 mi East 3.5 mph - N/A   Clear
9:55 PM 50.0 °F - 32.0 °F 50% 30.33 in 10.0 mi East 3.5 mph - N/A   Clear
10:15 PM 50.0 °F - 32.0 °F 50% 30.33 in 10.0 mi Calm Calm - N/A   Clear
10:35 PM 48.2 °F - 32.0 °F 54% 30.33 in 10.0 mi East 3.5 mph - N/A   Clear
10:55 PM 48.2 °F - 32.0 °F 54% 30.32 in 10.0 mi East 3.5 mph - N/A   Clear
11:15 PM 48.2 °F - 32.0 °F 54% 30.33 in 10.0 mi Calm Calm - N/A   Clear
11:35 PM 46.4 °F - 32.0 °F 57% 30.34 in 10.0 mi Calm Calm - N/A   Clear
11:55 PM 44.6 °F 43.1 °F 32.0 °F 61% 30.34 in 10.0 mi East 3.5 mph - N/A   Clear